1491170400.8,8948,16.38,74166.5,-1.95,-26.39,-26.71,0,*6C
1491170402.06,8949,16.38,74166.0,-1.95,-26.13,-26.39,0,*69
1491170403.29,8950,16.38,74162.8,-1.91,-26.23,-26.39,0,*66
1491170404.51,8951,16.38,74166.0,-1.93,-26.39,-26.55,0,*64
1491170405.75,8952,16.38,74162.3,-1.93,-26.55,-26.81,0,*64
1491170407.03,8953,16.38,74164.0,-1.91,-26.55,-26.71,0,*68
1491170408.31,8954,16.38,74160.3,-1.91,-26.33,-26.55,0,*69
1491170409.56,8955,16.38,74160.8,-1.91,-26.39,-26.55,0,*62
1491170410.79,8956,16.38,74156.5,-1.91,-26.65,-26.87,0,*67
1491170412.04,8957,16.38,74154.8,-1.93,-26.71,-26.81,0,*67
1491170413.26,8958,16.38,74160.0,-1.93,-26.55,-26.65,0,*64
1491170414.49,8959,16.38,74158.8,-1.91,-26.65,-26.87,0,*68
1491170415.72,8960,16.38,74156.3,-1.93,-26.65,-26.93,0,*65
1491170416.95,8961,16.38,74160.8,-1.91,-26.65,-26.87,0,*63
1491170418.21,8962,16.38,74164.5,-1.91,-26.81,-27.03,0,*67
1491170419.49,8963,16.38,74160.0,-1.91,-26.81,-26.93,0,*6E
1491170420.76,8964,16.38,74160.0,-1.91,-26.71,-26.93,0,*66
1491170422.02,8965,16.38,74162.5,-1.91,-26.81,-27.03,0,*60
1491170423.21,8966,16.38,74158.3,-1.93,-26.87,-27.07,0,*63
1491170424.49,8967,16.38,74158.5,-1.91,-26.93,-27.19,0,*6A
1491170425.72,8968,16.38,74166.8,-1.93,-26.81,-27.07,0,*6B
1491170426.98,8969,16.38,74164.8,-1.91,-26.81,-27.07,0,*68
1491170428.21,8970,16.38,74160.8,-1.93,-26.81,-27.03,0,*66
1491170429.49,8971,16.38,74160.5,-1.91,-26.81,-26.93,0,*6D
1491170430.72,8972,16.38,74160.8,-1.93,-26.81,-27.03,0,*64
1491170431.98,8973,16.38,74160.3,-1.91,-26.81,-27.03,0,*67
1491170433.23,8974,16.38,74160.0,-1.91,-26.87,-26.93,0,*6E
1491170434.46,8975,16.38,74162.8,-1.93,-26.49,-26.81,0,*6C
1491170435.71,8976,16.38,74160.3,-1.93,-26.55,-26.81,0,*62
1491170436.93,8977,16.38,74164.5,-1.93,-26.71,-27.03,0,*6E
1491170438.18,8978,16.38,74164.8,-1.91,-26.87,-27.19,0,*61
1491170439.4,8979,16.38,74166.5,-1.93,-27.03,-27.35,0,*61
1491170440.65,8980,16.38,74162.8,-1.91,-27.03,-27.23,0,*62
1491170441.93,8981,16.38,74160.8,-1.91,-26.81,-26.93,0,*62
1491170443.19,8982,16.38,74164.0,-1.91,-26.81,-27.03,0,*69
1491170444.45,8983,16.44,74164.3,-1.91,-26.81,-27.07,0,*6C
1491170445.71,8984,16.38,74164.3,-1.91,-26.65,-26.81,0,*6E
1491170446.94,8985,16.38,74164.5,-1.91,-26.39,-26.65,0,*6C
1491170448.17,8986,16.38,74162.5,-1.91,-26.65,-26.87,0,*6A
1491170449.39,8987,16.38,74156.8,-1.91,-26.87,-27.07,0,*6E
1491170450.64,8988,16.38,74156.3,-1.91,-26.87,-27.19,0,*6E
1491170451.9,8989,16.38,74160.8,-1.91,-26.81,-27.03,0,*62
1491170453.15,8990,16.38,74162.3,-1.91,-26.71,-27.03,0,*65
1491170454.41,8991,16.38,74162.5,-1.91,-26.81,-27.03,0,*6B
1491170455.68,8992,16.38,74166.8,-1.91,-26.71,-26.93,0,*6F
1491170456.95,8993,16.38,74166.3,-1.91,-26.71,-26.93,0,*6E
1491170458.21,8994,16.38,74166.0,-1.91,-26.65,-26.81,0,*6F
1491170459.46,8995,16.38,74164.8,-1.91,-26.55,-26.65,0,*67
1491170460.73,8996,16.38,74162.3,-1.91,-26.55,-26.71,0,*61
1491170461.94,8997,16.38,74162.3,-1.89,-26.65,-26.87,0,*63
1491170463.16,8998,16.38,74160.5,-1.89,-26.77,-26.87,0,*6F
1491170464.43,8999,16.38,74156.8,-1.87,-26.71,-26.93,0,*63
1491170465.66,9000,16.38,74162.3,-1.89,-26.77,-26.87,0,*66
1491170466.89,9001,16.38,74162.0,-1.89,-26.81,-27.03,0,*63
1491170468.15,9002,16.38,74160.3,-1.89,-26.97,-27.19,0,*6C
1491170469.35,9003,16.38,74160.3,-1.89,-26.87,-27.03,0,*67
1491170470.58,9004,16.44,74160.3,-1.89,-26.81,-27.13,0,*67
1491170471.83,9005,16.38,74162.3,-1.87,-26.81,-27.07,0,*6D
1491170473.06,9006,16.44,74162.0,-1.89,-26.97,-27.13,0,*62
1491170474.31,9007,16.38,74162.0,-1.91,-27.03,-27.19,0,*6C
1491170475.56,9008,16.38,74160.0,-1.91,-27.03,-27.19,0,*63
1491170476.78,9009,16.38,74166.0,-1.89,-26.87,-27.19,0,*66
1491170478.03,9010,16.38,74164.0,-1.89,-26.81,-26.97,0,*6F
1491170479.23,9011,16.38,74160.3,-1.89,-26.87,-27.03,0,*64
1491170480.43,9012,16.38,74160.5,-1.89,-26.87,-27.13,0,*66
1491170481.67,9013,16.38,74162.3,-1.91,-26.87,-27.19,0,*64
1491170482.93,9014,16.38,74166.0,-1.89,-26.97,-27.19,0,*6B
1491170484.15,9015,16.38,74162.8,-1.89,-26.87,-27.19,0,*6B
1491170485.38,9016,16.38,74164.0,-1.89,-26.77,-26.87,0,*61
1491170486.61,9017,16.38,74166.3,-1.89,-26.81,-27.03,0,*64
1491170487.81,9018,16.38,74168.0,-1.89,-26.87,-27.03,0,*6D
1491170489.04,9019,16.38,74164.8,-1.89,-26.81,-27.13,0,*6B
1491170490.27,9020,16.38,74164.0,-1.89,-26.97,-27.13,0,*66
1491170491.49,9021,16.38,74164.8,-1.89,-26.97,-27.13,0,*67
1491170492.69,9022,16.38,74164.0,-1.89,-26.87,-27.03,0,*64
1491170493.95,9023,16.38,74168.8,-1.89,-26.77,-26.97,0,*66
1491170495.18,9024,16.38,74168.0,-1.89,-26.97,-27.13,0,*62
1491170496.43,9025,16.38,74170.5,-1.91,-27.03,-27.19,0,*6C
1491170497.68,9026,16.38,74172.5,-1.91,-26.93,-27.07,0,*68
1491170498.96,9027,16.38,74168.8,-1.91,-26.81,-26.93,0,*66
1491170500.19,9028,16.38,74168.3,-1.89,-26.77,-26.87,0,*6C
1491170501.42,9029,16.38,74168.3,-1.89,-26.65,-26.77,0,*61
1491170502.65,9030,16.38,74168.8,-1.89,-26.61,-26.77,0,*6D
1491170503.89,9031,16.38,74170.0,-1.87,-26.61,-26.93,0,*68
1491170505.13,9032,16.38,74170.0,-1.89,-26.77,-27.03,0,*6A
1491170506.38,9033,16.38,74170.5,-1.89,-26.77,-26.81,0,*60
1491170507.65,9034,16.38,74170.3,-1.87,-26.55,-26.77,0,*60
1491170508.92,9035,16.38,74166.5,-1.87,-26.71,-26.93,0,*6D
1491170510.2,9036,16.38,74164.8,-1.87,-26.93,-27.23,0,*68
1491170511.42,9037,16.38,74162.8,-1.87,-27.07,-27.13,0,*66
1491170512.67,9038,16.38,74162.8,-1.87,-26.97,-27.13,0,*61
1491170513.92,9039,16.38,74164.8,-1.89,-26.97,-27.19,0,*64
1491170515.18,9040,16.38,74166.5,-1.89,-26.97,-27.19,0,*6A
1491170516.43,9041,16.38,74170.5,-1.89,-26.97,-27.19,0,*6B
1491170517.69,9042,16.38,74168.0,-1.89,-26.97,-27.19,0,*68
1491170518.96,9043,16.38,74168.0,-1.87,-26.81,-27.19,0,*60
1491170520.19,9044,16.38,74170.3,-1.89,-26.81,-27.13,0,*63
1491170521.46,9045,16.38,74170.0,-1.87,-26.71,-26.81,0,*69
1491170522.71,9046,16.38,74168.3,-1.87,-26.61,-26.81,0,*6B
1491170523.96,9047,16.38,74164.8,-1.87,-26.61,-26.93,0,*69
1491170525.19,9048,16.38,74166.5,-1.89,-26.81,-27.13,0,*6F
1491170526.44,9049,16.38,74164.5,-1.89,-26.77,-26.97,0,*6A
1491170527.71,9050,16.38,74158.5,-1.87,-26.71,-26.93,0,*6E
1491170528.99,9051,16.38,74162.3,-1.87,-26.77,-26.93,0,*69
1491170530.26,9052,16.38,74162.3,-1.87,-26.71,-26.93,0,*6C
1491170531.48,9053,16.38,74160.3,-1.89,-26.77,-27.13,0,*6C
1491170532.71,9054,16.38,74160.0,-1.89,-26.81,-27.13,0,*62
1491170533.99,9055,16.38,74164.3,-1.87,-26.77,-26.97,0,*69
1491170535.24,9056,16.38,74162.3,-1.89,-26.71,-26.97,0,*62
1491170536.49,9057,16.38,74160.8,-1.87,-26.61,-26.93,0,*68
1491170537.75,9058,16.38,74166.0,-1.87,-26.71,-26.93,0,*66
1491170538.95,9059,16.38,74160.8,-1.89,-26.87,-27.13,0,*69
1491170540.2,9060,16.38,74160.5,-1.87,-26.93,-27.13,0,*68
1491170541.43,9061,16.38,74162.0,-1.87,-27.07,-27.29,0,*6C
1491170542.68,9062,16.38,74158.8,-1.89,-26.97,-27.19,0,*6A
1491170543.93,9063,16.38,74158.3,-1.87,-27.07,-27.23,0,*64
1491170545.14,9064,16.38,74158.3,-1.89,-27.03,-27.29,0,*63
1491170546.39,9065,16.38,74162.8,-1.87,-26.81,-27.13,0,*6E
1491170547.61,9066,16.38,74164.3,-1.89,-26.87,-27.19,0,*6F
1491170548.83,9067,16.38,74166.8,-1.89,-27.03,-27.19,0,*63
1491170550.08,9068,16.38,74162.8,-1.89,-26.97,-27.19,0,*60
1491170551.29,9069,16.38,74166.3,-1.89,-27.03,-27.29,0,*6E
1491170552.51,9070,16.38,74162.5,-1.89,-26.87,-27.19,0,*68
1491170553.71,9071,16.38,74162.5,-1.89,-27.03,-27.29,0,*67
1491170554.94,9072,16.38,74160.3,-1.89,-27.13,-27.35,0,*68
1491170556.14,9073,16.38,74164.8,-1.89,-27.03,-27.29,0,*65
1491170557.38,9074,16.38,74164.0,-1.89,-26.81,-27.03,0,*61
1491170558.6,9075,16.38,74166.8,-1.89,-26.77,-26.87,0,*64
1491170559.83,9076,16.38,74160.5,-1.89,-26.61,-26.93,0,*65
1491170561.06,9077,16.38,74160.5,-1.89,-26.81,-27.03,0,*62
1491170562.31,9078,16.38,74160.0,-1.87,-27.07,-27.23,0,*6E
1491170563.56,9079,16.38,74166.5,-1.89,-26.97,-27.19,0,*60
1491170564.82,9080,16.38,74164.8,-1.89,-26.97,-27.19,0,*66
1491170566.04,9081,16.38,74166.0,-1.89,-26.87,-27.19,0,*66
1491170567.29,9082,16.38,74164.3,-1.89,-26.97,-27.19,0,*64
1491170568.53,9083,16.38,74166.5,-1.89,-26.81,-27.03,0,*69
1491170569.75,9084,16.38,74164.3,-1.89,-26.81,-27.13,0,*6F
1491170570.98,9085,16.38,74162.5,-1.89,-27.03,-27.35,0,*61
1491170572.23,9086,16.38,74160.8,-1.91,-27.07,-27.23,0,*68
1491170573.49,9087,16.38,74164.3,-1.91,-27.03,-27.35,0,*6A
1491170574.69,9088,16.38,74166.0,-1.89,-27.03,-27.29,0,*61
1491170575.95,9089,16.38,74160.8,-1.89,-26.77,-26.97,0,*66
1491170577.2,9090,16.38,74162.8,-1.91,-26.71,-27.07,0,*69
1491170578.45,9091,16.38,74162.3,-1.91,-26.87,-27.23,0,*67
1491170579.7,9092,16.38,74162.8,-1.91,-27.03,-27.23,0,*69
1491170580.97,9093,16.38,74160.5,-1.91,-27.19,-27.23,0,*63
1491170582.22,9094,16.38,74162.8,-1.91,-27.03,-27.35,0,*68
1491170583.47,9095,16.38,74162.3,-1.91,-27.03,-27.35,0,*69
1491170584.73,9096,16.38,74160.0,-1.91,-27.03,-27.35,0,*6A
1491170585.98,9097,16.38,74160.8,-1.91,-27.07,-27.39,0,*63
1491170587.21,9098,16.38,74158.0,-1.89,-27.03,-27.35,0,*6D
1491170588.44,9099,16.38,74154.5,-1.89,-26.97,-27.29,0,*6D
1491170589.67,9100,16.38,74158.0,-1.89,-27.03,-27.35,0,*6D
1491170590.88,9101,16.38,74156.3,-1.89,-27.03,-27.29,0,*61
1491170592.16,9102,16.38,74156.0,-1.91,-26.93,-27.35,0,*6E
1491170593.38,9103,16.38,74156.8,-1.93,-27.03,-27.23,0,*62
1491170594.64,9104,16.38,74160.8,-1.91,-27.07,-27.35,0,*64
1491170595.86,9105,16.38,74162.8,-1.93,-27.03,-27.35,0,*63
1491170597.12,9106,16.38,74158.5,-1.91,-27.03,-27.35,0,*62
1491170598.37,9107,16.38,74158.0,-1.91,-27.03,-27.23,0,*64
1491170599.59,9108,16.38,74160.8,-1.93,-27.03,-27.23,0,*69
1491170600.84,9109,16.38,74168.5,-1.91,-27.03,-27.23,0,*6A
1491170602.09,9110,16.38,74166.3,-1.91,-26.87,-27.23,0,*6F
1491170603.35,9111,16.38,74170.5,-1.91,-26.81,-27.07,0,*6E
1491170604.57,9112,16.38,74162.3,-1.93,-26.87,-27.19,0,*66
1491170605.82,9113,16.38,74166.3,-1.91,-27.03,-27.23,0,*61
1491170607.05,9114,16.38,74162.8,-1.93,-27.03,-27.35,0,*63
1491170608.3,9115,16.38,74162.8,-1.91,-27.07,-27.39,0,*68
1491170609.52,9116,16.38,74166.3,-1.93,-27.19,-27.51,0,*68
1491170610.77,9117,16.38,74168.3,-1.91,-27.03,-27.39,0,*6E
1491170612.02,9118,16.38,74168.3,-1.91,-26.87,-27.23,0,*67
1491170613.29,9119,16.38,74168.3,-1.91,-26.93,-27.19,0,*6A
1491170614.55,9120,16.38,74166.3,-1.91,-26.81,-27.07,0,*6C
1491170615.81,9121,16.38,74166.8,-1.91,-26.65,-26.81,0,*68
1491170617.09,9122,16.38,74164.3,-1.91,-26.81,-27.19,0,*61
1491170618.37,9123,16.38,74162.3,-1.91,-26.81,-27.19,0,*60
1491170619.62,9124,16.38,74164.8,-1.91,-27.03,-27.35,0,*62
1491170620.88,9125,16.38,74164.3,-1.91,-27.07,-27.39,0,*6B
1491170622.1,9126,16.38,74164.8,-1.93,-26.71,-27.03,0,*63
1491170623.36,9127,16.38,74164.5,-1.91,-26.65,-26.93,0,*6D
1491170624.63,9128,16.38,74164.5,-1.91,-26.55,-26.81,0,*62
1491170625.91,9129,16.38,74162.3,-1.91,-26.81,-27.19,0,*6A
1491170627.14,9130,16.38,74164.5,-1.89,-26.81,-27.13,0,*61
1491170628.37,9131,16.38,74164.3,-1.89,-26.81,-27.13,0,*60
1491170629.6,9132,16.38,74162.8,-1.89,-26.81,-27.13,0,*63
1491170630.85,9133,16.38,74164.3,-1.89,-26.81,-27.19,0,*68
1491170632.07,9134,16.38,74164.5,-1.89,-26.87,-27.19,0,*69
1491170633.33,9135,16.38,74164.3,-1.89,-26.97,-27.19,0,*69
1491170634.55,9136,16.38,74160.8,-1.89,-26.81,-27.13,0,*67
1491170635.78,9137,16.38,74162.3,-1.89,-26.81,-27.13,0,*66
1491170637.01,9138,16.38,74160.3,-1.89,-26.77,-27.13,0,*60
1491170638.26,9139,16.38,74164.5,-1.87,-26.77,-27.07,0,*6A
1491170639.52,9140,16.38,74162.8,-1.89,-26.77,-26.97,0,*62
1491170640.77,9141,16.38,74164.5,-1.87,-26.77,-27.07,0,*65
1491170642.01,9142,16.38,74160.3,-1.89,-26.97,-27.29,0,*6A
1491170643.24,9143,16.38,74160.8,-1.89,-26.97,-27.29,0,*6B
1491170644.47,9144,16.38,74164.3,-1.89,-27.13,-27.35,0,*6C
1491170645.72,9145,16.38,74162.5,-1.89,-26.81,-27.19,0,*69
1491170646.97,9146,16.38,74162.5,-1.89,-26.97,-27.19,0,*6D
1491170648.23,9147,16.38,74164.0,-1.87,-26.77,-27.07,0,*63
1491170649.48,9148,16.38,74158.3,-1.87,-26.77,-27.07,0,*6C
1491170650.67,9149,16.38,74162.5,-1.89,-26.87,-27.13,0,*69
1491170651.93,9150,16.38,74158.5,-1.89,-26.81,-27.19,0,*6D
1491170653.16,9151,16.38,74158.3,-1.89,-26.97,-27.29,0,*68
1491170654.42,9152,16.38,74156.8,-1.89,-26.97,-27.19,0,*68
1491170655.67,9153,16.38,74154.5,-1.89,-26.97,-27.19,0,*69
1491170656.89,9154,16.38,74158.3,-1.89,-27.13,-27.45,0,*6A
1491170658.17,9155,16.38,74156.3,-1.87,-26.97,-27.39,0,*63
1491170659.36,9156,16.38,74162.8,-1.89,-26.87,-27.13,0,*67
1491170660.62,9157,16.38,74162.5,-1.89,-26.81,-27.19,0,*6A
1491170661.81,9158,16.38,74158.0,-1.89,-27.13,-27.51,0,*63
1491170663.07,9159,16.38,74158.0,-1.89,-26.97,-27.19,0,*63
1491170664.3,9160,16.38,74160.8,-1.89,-26.77,-27.03,0,*6C
1491170665.53,9161,16.38,74162.8,-1.89,-26.81,-27.03,0,*64
1491170666.77,9162,16.38,74158.8,-1.89,-26.97,-27.29,0,*68
1491170667.99,9163,16.38,74158.5,-1.89,-27.13,-27.35,0,*69
1491170669.21,9164,16.38,74160.5,-1.89,-26.87,-27.19,0,*6C
1491170670.41,9165,16.38,74158.3,-1.89,-26.87,-27.29,0,*6E
1491170671.61,9166,16.38,74156.5,-1.89,-26.87,-27.13,0,*64
1491170672.86,9167,16.38,74162.5,-1.87,-26.93,-27.13,0,*6E
1491170674.11,9168,16.38,74166.0,-1.89,-26.97,-27.19,0,*61
1491170675.36,9169,16.38,74160.8,-1.89,-26.93,-27.23,0,*6D
1491170676.6,9170,16.38,74160.3,-1.89,-26.97,-27.29,0,*6B
1491170677.85,9171,16.38,74158.0,-1.89,-26.97,-27.19,0,*69
1491170679.05,9172,16.38,74168.3,-1.89,-27.03,-27.29,0,*65
1491170680.28,9173,16.38,74170.0,-1.89,-26.77,-27.13,0,*6F
1491170681.51,9174,16.38,74166.3,-1.89,-26.81,-27.13,0,*61
1491170682.79,9175,16.38,74164.3,-1.91,-26.81,-27.19,0,*63
1491170684.05,9176,16.38,74160.8,-1.89,-26.97,-27.35,0,*60
1491170685.25,9177,16.38,74168.0,-1.89,-27.03,-27.29,0,*60
1491170686.47,9178,16.38,74166.0,-1.89,-26.87,-27.19,0,*61
1491170687.7,9179,16.38,74164.5,-1.89,-27.03,-27.35,0,*63
1491170688.9,9180,16.38,74164.8,-1.89,-26.87,-27.29,0,*65
1491170690.16,9181,16.38,74166.0,-1.89,-26.97,-27.35,0,*68
1491170691.38,9182,16.38,74170.3,-1.89,-27.03,-27.35,0,*67
1491170692.6,9183,16.38,74166.8,-1.89,-27.13,-27.45,0,*60
1491170693.83,9184,16.38,74168.3,-1.89,-27.03,-27.35,0,*61
1491170695.1,9185,16.38,74168.8,-1.91,-27.19,-27.35,0,*62
1491170696.38,9186,16.38,74170.0,-1.91,-26.93,-27.23,0,*65
1491170697.63,9187,16.38,74164.3,-1.91,-26.87,-27.23,0,*61
1491170698.88,9188,16.38,74164.8,-1.91,-27.03,-27.35,0,*64
1491170700.13,9189,16.38,74160.3,-1.91,-27.07,-27.39,0,*6D
1491170701.41,9190,16.38,74164.0,-1.91,-26.93,-27.23,0,*62
1491170702.67,9191,16.38,74164.3,-1.91,-27.03,-27.35,0,*6C
1491170703.92,9192,16.38,74162.5,-1.91,-27.07,-27.39,0,*67
1491170705.17,9193,16.38,74160.3,-1.91,-27.03,-27.39,0,*62
1491170706.4,9194,16.38,74160.0,-1.91,-27.07,-27.51,0,*6F
1491170707.65,9195,16.38,74160.5,-1.91,-27.19,-27.51,0,*61
1491170708.9,9196,16.38,74156.3,-1.91,-27.03,-27.35,0,*6B
1491170710.15,9197,16.38,74152.8,-1.91,-27.03,-27.35,0,*6A
1491170711.43,9198,16.38,74154.8,-1.91,-26.93,-27.23,0,*6A
1491170712.71,9199,16.38,74150.3,-1.91,-26.93,-27.23,0,*6B
1491170713.97,9200,16.38,74164.0,-1.91,-26.81,-27.07,0,*6D
1491170715.24,9201,16.38,74164.8,-1.91,-26.93,-27.19,0,*60
1491170716.49,9202,16.38,74164.0,-1.91,-26.87,-27.23,0,*6F
1491170717.71,9203,16.38,74166.8,-1.93,-26.87,-27.19,0,*65
1491170718.96,9204,16.38,74164.5,-1.91,-26.87,-27.19,0,*60
1491170720.21,9205,16.38,74164.8,-1.91,-27.03,-27.39,0,*6E
1491170721.44,9206,16.38,74168.3,-1.91,-27.07,-27.51,0,*67
1491170722.69,9207,16.38,74164.8,-1.91,-27.03,-27.35,0,*60
1491170723.89,9208,16.38,74166.3,-1.93,-27.07,-27.51,0,*6B
1491170725.14,9209,16.38,74166.0,-1.91,-27.19,-27.51,0,*67
1491170726.36,9210,16.38,74166.8,-1.93,-27.23,-27.55,0,*60
1491170727.6,9211,16.38,74166.0,-1.91,-27.19,-27.51,0,*6E
1491170728.81,9212,16.38,74164.8,-1.93,-27.07,-27.51,0,*60
1491170730.03,9213,16.38,74164.0,-1.93,-27.07,-27.39,0,*6F
1491170731.29,9214,16.38,74160.8,-1.91,-27.07,-27.39,0,*6A
1491170732.49,9215,16.38,74166.0,-1.93,-27.07,-27.55,0,*63
1491170733.71,9216,16.38,74166.5,-1.93,-27.23,-27.51,0,*62
1491170734.94,9217,16.38,74168.0,-1.93,-27.35,-27.67,0,*61
1491170736.17,9218,16.38,74164.8,-1.93,-27.07,-27.35,0,*68
1491170737.39,9219,16.38,74166.5,-1.93,-27.03,-27.23,0,*6A
1491170738.64,9220,16.38,74164.8,-1.95,-27.07,-27.45,0,*62
1491170739.89,9221,16.38,74162.3,-1.93,-26.81,-27.23,0,*6A
1491170741.15,9222,16.38,74166.8,-1.91,-27.03,-27.35,0,*67
1491170742.37,9223,16.38,74166.0,-1.93,-27.03,-27.39,0,*68
1491170743.62,9224,16.38,74168.8,-1.93,-26.93,-27.23,0,*6C
1491170744.84,9225,16.38,74168.8,-1.93,-26.71,-27.07,0,*67
1491170746.09,9226,16.38,74166.5,-1.91,-26.71,-27.03,0,*62
1491170747.32,9227,16.38,74166.5,-1.93,-26.71,-27.07,0,*65
1491170748.54,9228,16.38,74164.8,-1.93,-26.71,-27.07,0,*6A
1491170749.77,9229,16.38,74160.3,-1.93,-26.81,-27.03,0,*60
1491170751.02,9230,16.38,74162.0,-1.93,-26.81,-27.19,0,*63
1491170752.27,9231,16.38,74166.3,-1.93,-26.93,-27.19,0,*61
1491170753.55,9232,16.38,74162.8,-1.91,-26.81,-27.23,0,*6A
1491170754.77,9233,16.38,74164.3,-1.93,-26.87,-27.19,0,*66
1491170756.02,9234,16.38,74162.5,-1.91,-26.87,-27.19,0,*63
1491170757.27,9235,16.38,74160.8,-1.91,-26.87,-27.23,0,*6B
1491170758.52,9236,16.38,74164.3,-1.91,-26.87,-27.23,0,*68
1491170759.73,9237,16.38,74164.5,-1.93,-27.19,-27.51,0,*68
1491170760.98,9238,16.38,74160.3,-1.93,-26.93,-27.23,0,*61
1491170762.21,9239,16.38,74166.0,-1.93,-27.07,-27.39,0,*67
1491170763.46,9240,16.38,74162.3,-1.91,-27.35,-27.67,0,*61
1491170764.69,9241,16.38,74162.5,-1.93,-27.07,-27.39,0,*68
1491170765.91,9242,16.38,74160.5,-1.93,-27.19,-27.55,0,*6E
1491170767.12,9243,16.38,74162.5,-1.93,-27.19,-27.51,0,*6B
1491170768.34,9244,16.38,74166.5,-1.93,-27.19,-27.51,0,*6C
1491170769.55,9245,16.38,74160.8,-1.93,-27.19,-27.51,0,*6D
1491170770.77,9246,16.38,74162.5,-1.93,-27.19,-27.55,0,*6A
1491170771.99,9247,16.38,74166.3,-1.93,-26.87,-27.23,0,*6C
1491170773.24,9248,16.38,74164.3,-1.93,-26.81,-27.19,0,*6C
1491170774.5,9249,16.38,74164.3,-1.93,-26.81,-27.19,0,*6D
1491170775.72,9250,16.38,74168.0,-1.93,-26.71,-27.03,0,*61
1491170776.95,9251,16.38,74166.0,-1.93,-26.71,-27.03,0,*60
1491170778.16,9252,16.38,74160.8,-1.93,-26.87,-27.19,0,*61
1491170779.41,9253,16.38,74162.0,-1.91,-26.87,-27.19,0,*62
1491170780.66,9254,16.38,74162.8,-1.93,-26.93,-27.19,0,*62
1491170781.89,9255,16.38,74158.3,-1.93,-26.81,-27.07,0,*6F
1491170783.14,9256,16.38,74162.0,-1.93,-26.81,-27.19,0,*63
1491170784.4,9257,16.38,74158.3,-1.91,-26.71,-27.03,0,*64
1491170785.62,9258,16.38,74156.5,-1.93,-26.71,-27.07,0,*6D
1491170786.87,9259,16.38,74160.0,-1.93,-26.93,-27.19,0,*6F
1491170788.15,9260,16.38,74160.8,-1.91,-26.81,-27.19,0,*64
1491170789.41,9261,16.38,74160.5,-1.91,-26.81,-27.07,0,*6A
1491170790.65,9262,16.38,74158.3,-1.91,-26.87,-27.23,0,*69
1491170791.91,9263,16.38,74154.5,-1.91,-27.07,-27.35,0,*66
1491170793.16,9264,16.38,74156.5,-1.93,-26.93,-27.23,0,*68
1491170794.41,9265,16.38,74162.5,-1.91,-27.19,-27.51,0,*6D
1491170795.62,9266,16.38,74166.3,-1.93,-27.19,-27.51,0,*6C
1491170796.86,9267,16.38,74170.3,-1.93,-27.19,-27.39,0,*63
1491170798.09,9268,16.38,74172.0,-1.93,-26.81,-27.07,0,*61
1491170799.33,9269,16.38,74164.0,-1.93,-26.81,-27.03,0,*64
1491170800.58,9270,16.38,74160.8,-1.91,-26.71,-27.03,0,*61
1491170801.85,9271,16.38,74160.0,-1.91,-26.93,-27.19,0,*67
1491170803.13,9272,16.38,74162.3,-1.91,-26.93,-27.23,0,*6D
1491170804.36,9273,16.38,74164.8,-1.93,-27.03,-27.35,0,*61
1491170805.61,9274,16.38,74166.3,-1.93,-26.93,-27.23,0,*69
1491170806.86,9275,16.38,74166.5,-1.93,-26.81,-27.19,0,*62
1491170808.11,9276,16.38,74164.0,-1.91,-26.87,-27.19,0,*65
1491170809.33,9277,16.38,74164.8,-1.93,-26.87,-27.19,0,*66
1491170810.58,9278,16.38,74170.8,-1.93,-26.93,-27.19,0,*6C
1491170811.83,9279,16.38,74168.5,-1.91,-27.03,-27.35,0,*69
1491170813.09,9280,16.38,74170.8,-1.91,-26.81,-27.03,0,*61
1491170814.34,9281,16.38,74168.0,-1.91,-26.71,-27.03,0,*6F
1491170815.55,9282,16.38,74168.5,-1.93,-26.65,-26.87,0,*66
1491170816.81,9283,16.38,74170.0,-1.91,-26.65,-26.81,0,*63
1491170818.06,9284,16.38,74170.0,-1.91,-26.49,-26.71,0,*65
1491170819.31,9285,16.38,74168.3,-1.91,-26.49,-26.81,0,*6B
1491170820.56,9286,16.38,74168.8,-1.91,-26.55,-26.87,0,*63
1491170821.8,9287,16.38,74164.3,-1.89,-26.77,-27.03,0,*66
1491170823.02,9288,16.38,74160.0,-1.89,-26.81,-27.13,0,*61
1491170824.25,9289,16.38,74166.3,-1.89,-26.77,-27.13,0,*69
1491170825.53,9290,16.38,74160.0,-1.87,-26.93,-27.23,0,*66
1491170826.78,9291,16.38,74158.8,-1.89,-26.97,-27.35,0,*6A
1491170828.02,9292,16.38,74152.0,-1.89,-26.97,-27.29,0,*64
1491170829.24,9293,16.38,74156.5,-1.89,-26.87,-27.19,0,*67
1491170830.47,9294,16.38,74162.3,-1.89,-26.81,-27.13,0,*6C
1491170831.69,9295,16.38,74162.8,-1.89,-26.81,-27.13,0,*6D
1491170832.89,9296,16.38,74162.5,-1.89,-26.87,-27.29,0,*61
1491170834.1,9297,16.38,74162.0,-1.89,-27.13,-27.29,0,*6C
1491170835.33,9298,16.38,74160.5,-1.89,-26.97,-27.29,0,*6E
1491170836.55,9299,16.38,74160.3,-1.89,-26.87,-27.19,0,*6D
1491170837.77,9300,16.38,74162.3,-1.89,-26.87,-27.19,0,*6C
1491170839.01,9301,16.38,74160.0,-1.89,-26.97,-27.29,0,*6F
1491170840.21,9302,16.38,74166.3,-1.89,-27.03,-27.29,0,*60
1491170841.43,9303,16.38,74164.3,-1.89,-26.87,-27.19,0,*6F
1491170842.68,9304,16.38,74166.8,-1.89,-26.81,-27.19,0,*6E
1491170843.92,9305,16.38,74164.8,-1.89,-26.97,-27.29,0,*6B
1491170845.14,9306,16.38,74162.3,-1.89,-27.13,-27.35,0,*68
1491170846.35,9307,16.38,74162.5,-1.89,-27.03,-27.29,0,*65
1491170847.57,9308,16.38,74166.5,-1.89,-27.03,-27.45,0,*60
1491170848.79,9309,16.31,74160.5,-1.89,-26.87,-27.19,0,*65
1491170850.02,9310,16.38,74166.5,-1.89,-26.97,-27.29,0,*6F
1491170851.3,9311,16.38,74162.0,-1.91,-26.93,-27.23,0,*69
1491170852.53,9312,16.38,74164.3,-1.89,-27.03,-27.35,0,*6C
1491170853.75,9313,16.38,74164.3,-1.89,-27.13,-27.45,0,*6B
1491170854.96,9314,16.38,74164.0,-1.89,-27.13,-27.45,0,*6C
1491170856.21,9315,16.38,74168.0,-1.91,-27.35,-27.67,0,*60
1491170857.49,9316,16.38,74168.0,-1.91,-27.23,-27.39,0,*6F
1491170858.71,9317,16.38,74170.0,-1.93,-27.03,-27.39,0,*6E
1491170859.98,9318,16.38,74164.8,-1.91,-27.19,-27.39,0,*68
1491170861.21,9319,16.38,74168.5,-1.93,-27.07,-27.39,0,*64
1491170862.44,9320,16.38,74162.3,-1.91,-27.07,-27.51,0,*62
1491170863.72,9321,16.38,74160.8,-1.91,-26.93,-27.23,0,*6A
1491170864.96,9322,16.38,74164.5,-1.91,-27.19,-27.55,0,*6B
1491170866.21,9323,16.38,74164.3,-1.91,-27.23,-27.67,0,*62
1491170867.44,9324,16.38,74162.0,-1.91,-27.07,-27.55,0,*62
1491170868.69,9325,16.38,74166.5,-1.91,-27.23,-27.55,0,*65
1491170869.92,9326,16.38,74168.0,-1.93,-27.23,-27.67,0,*65
1491170871.15,9327,16.38,74168.3,-1.93,-27.07,-27.39,0,*69
1491170872.4,9328,16.38,74168.3,-1.91,-27.03,-27.23,0,*6B
1491170873.62,9329,16.38,74166.5,-1.93,-27.07,-27.39,0,*67
1491170874.84,9330,16.38,74170.0,-1.93,-27.19,-27.51,0,*6E
1491170876.06,9331,16.38,74166.5,-1.93,-27.35,-27.67,0,*64
1491170877.31,9332,16.38,74168.5,-1.93,-26.93,-27.23,0,*6A
1491170878.54,9333,16.38,74168.0,-1.93,-27.07,-27.39,0,*6C
1491170879.77,9334,16.38,74170.3,-1.93,-27.23,-27.51,0,*63
1491170880.99,9335,16.38,74168.5,-1.93,-27.23,-27.51,0,*62
1491170882.24,9336,16.38,74166.3,-1.93,-27.23,-27.39,0,*6F
1491170883.49,9337,16.38,74168.5,-1.93,-26.93,-27.19,0,*66
1491170884.73,9338,16.38,74168.5,-1.93,-27.19,-27.35,0,*64
1491170885.95,9339,16.38,74170.8,-1.93,-27.03,-27.23,0,*69
1491170887.17,9340,16.38,74168.0,-1.93,-27.19,-27.55,0,*6D
1491170888.42,9341,16.38,74170.8,-1.93,-26.93,-27.23,0,*6E
1491170889.69,9342,16.31,74166.0,-1.95,-27.23,-27.45,0,*61
1491170890.94,9343,16.38,74170.8,-1.95,-27.13,-27.39,0,*68
1491170892.22,9344,16.38,74170.8,-1.95,-26.93,-27.23,0,*6D
1491170893.5,9345,16.31,74164.0,-1.95,-26.97,-27.23,0,*68
1491170894.75,9346,16.38,74168.5,-1.95,-27.07,-27.39,0,*68
1491170895.99,9347,16.38,74166.3,-1.95,-27.07,-27.29,0,*68
1491170897.24,9348,16.38,74168.5,-1.95,-27.13,-27.39,0,*63
1491170898.51,9349,16.38,74166.8,-1.95,-27.23,-27.45,0,*6A
1491170899.75,9350,16.38,74164.3,-1.95,-27.23,-27.55,0,*63
1491170901.0,9351,16.38,74166.5,-1.95,-27.39,-27.55,0,*69
1491170902.27,9352,16.38,74168.8,-1.95,-27.23,-27.45,0,*60
1491170903.5,9353,16.38,74164.5,-1.97,-27.29,-27.45,0,*69
1491170904.77,9354,16.38,74166.8,-1.95,-27.23,-27.39,0,*6D